TOURFACTS.DK  
Stats and Facts from Tour de France.

Tour de France 2018 starts in 318 days
  Riders   Stages   Teams   Summits   Yearly  


 
Search by year

 2017 - St. 21:  14824 starters.
  5131 different riders.
  634 teams.
  2232 stages.
  454 restdays.
  439589.60 km.
  5653 abandonnees.


Top 3
Christopher Froome86:20:55
Rigoberto Uran86:21:49
Romain Bardet86:23:15
Warren Barguil169 pt.
Primoz Roglic80 pt.
Thomas De Gendt64 pt.
Michael Matthews359 pt.
André Greipel234 pt.
Edvald Boasson Hagen220 pt.
Simon Yates86:27:09
Louis Meintjes86:29:15
Emanuel Buchmann86:54:16
Facts from Tour de France 2015
  |   Stages.  |   Stage winners.  |   Days in yellow  |   Average speed.  |   Route.  |   Teams.  |   All riders.  |   Rookies.  |   Withdrawls.  |  

  |   GC.  |   Polka  |   Green  |   White  |   Summits. (In tour)  |   Summits. (Points)  |   Miscellaneous.  |  

Stage 13 on 17 - 07 - 2015
         Owning:    Christopher Froome      Christopher Froome      Peter Sagan      Nairo Quintana  

Pick a stage:  1 2 3 4 5 6 7 8 9 10 11 12 13 14 15 16 17 18 19 20 21
  MuretRodez | Dist: 198.50 km.
Cat: 3Côte de Saint-CirgueBELThomas De Gendt
2 points
 
Cat: 4Côte de la PomparieFRAAlexandre Geniez
1 point
 
Cat: 4Côte de la SelveNEDWilco Kelderman
1 point
 

Average speed for all riders in stage:  41,098 km./hr.
    Place:Name:Team:Time:Km/h:
BELGreg Van AvermaetUSABMC Racing Team04:43:42  +  00:00:00=41,981 
SVKPeter SaganRUSTinkoff Saxo04:43:42  +  00:00:00=41,981 
BELJan BakelantsFRAAg2r La Mondiale04:43:45  +  00:00:03=41,974 
4 GERJohn DegenkolbDEUTeam Giant Alpecin04:43:49  +  00:00:07=41,964 
5 GERPaul MartensNLDTeam Lotto NL - Jumbo04:43:49  +  00:00:07=41,964 
6 KENChristopher FroomeGBRSky Procycling04:43:49  +  00:00:07=41,964 
7 ITAVincenzo NibaliKAZAstana Pro Team04:43:49  +  00:00:07=41,964 
8 ESPAlberto ContadorRUSTinkoff Saxo04:43:49  +  00:00:07=41,964 
9 ESPAlejandro ValverdeESPMovistar Team04:43:49  +  00:00:07=41,964 
10 USATejay Van GarderenUSABMC Racing Team04:43:49  +  00:00:07=41,964 
11 FRATony GallopinBELLotto Soudal04:43:49  +  00:00:07=41,964 
12 COLNairo QuintanaESPMovistar Team04:43:49  +  00:00:07=41,964 
13 NEDRobert GesinkNLDTeam Lotto NL - Jumbo04:43:49  +  00:00:07=41,964 
14 WALGeraint ThomasGBRSky Procycling04:43:49  +  00:00:07=41,964 
15 ARGEduardo SepulvedaFRABretagne - Séché Environnement04:43:49  +  00:00:07=41,964 
16 CZEZdenek StybarBELEtixx - Quick Step04:43:59  +  00:00:17=41,939 
17 FRAWarren BarguilDEUTeam Giant Alpecin04:43:59  +  00:00:17=41,939 
18 AUSMichael MatthewsAUSOrica - GreenEDGE04:43:59  +  00:00:17=41,939 
19 SUIMathias FrankCHEIAM Cycling04:43:59  +  00:00:17=41,939 
20 FRAPierre RollandFRATeam Europcar04:43:59  +  00:00:17=41,939 
21 NEDWilco KeldermanNLDTeam Lotto NL - Jumbo04:44:06  +  00:00:24=41,922 
22 URSTanel KangertKAZAstana Pro Team04:44:10  +  00:00:28=41,912 
23 FRAArmindo FonsecaFRABretagne - Séché Environnement04:44:10  +  00:00:28=41,912 
24 ESPJosé Herrada LópezESPMovistar Team04:44:10  +  00:00:28=41,912 
25 BELSerge PauwelsZAFMTN - Qhubeka P/B Samsung04:44:10  +  00:00:28=41,912 
26 FRARomain BardetFRAAg2r La Mondiale04:44:10  +  00:00:28=41,912 
27 FRAMickaël CherelFRAAg2r La Mondiale04:44:10  +  00:00:28=41,912 
28 ESPSamuel SanchezUSABMC Racing Team04:44:10  +  00:00:28=41,912 
29 FRACyril GautierFRATeam Europcar04:44:19  +  00:00:37=41,890 
30 BELThomas De GendtBELLotto Soudal04:44:19  +  00:00:37=41,890 
31 NOREdvald Boasson HagenZAFMTN - Qhubeka P/B Samsung04:44:19  +  00:00:37=41,890 
32 USAAndrew TalanskyUSATeam Cannondale - Garmin04:44:24  +  00:00:42=41,878 
33 FRAThibaut PinotFRAFDJ04:44:24  +  00:00:42=41,878 
34 COLJarlinson Pantano GomezCHEIAM Cycling04:44:27  +  00:00:45=41,870 
35 NORAlexander KristoffRUSTeam Katusha04:44:27  +  00:00:45=41,870 
36 FRAArnaud DémareFRAFDJ04:44:29  +  00:00:47=41,865 
37 ITAMichele ScarponiKAZAstana Pro Team04:44:39  +  00:00:57=41,841 
38 IOMMark CavendishBELEtixx - Quick Step04:44:40  +  00:00:58=41,838 
39 ITAFilippo PozzatoITALampre-Merida04:44:40  +  00:00:58=41,838 
40 PORNelson OliveiraITALampre-Merida04:44:40  +  00:00:58=41,838 
41 ESPLuis Angel MateFRACofidis – Solutions Crédits04:44:40  +  00:00:58=41,838 
42 DENLars BakBELLotto Soudal04:44:40  +  00:00:58=41,838 
43 SLOKristjan KorenUSATeam Cannondale - Garmin04:44:55  +  00:01:13=41,802 
44 NEDLaurens ten DamNLDTeam Lotto NL - Jumbo04:44:58  +  00:01:16=41,794 
45 FRANicolas RocheGBRSky Procycling04:44:58  +  00:01:16=41,794 
46 FRABenoit VaugrenardFRAFDJ04:45:00  +  00:01:18=41,789 
47 NEDStef ClementCHEIAM Cycling04:45:05  +  00:01:23=41,777 
48 RSAReinardt Janse Van RensburgZAFMTN - Qhubeka P/B Samsung04:45:07  +  00:01:25=41,772 
49 NEDSteven KruijswijkNLDTeam Lotto NL - Jumbo04:45:08  +  00:01:26=41,770 
50 BELJulien VermoteBELEtixx - Quick Step04:45:10  +  00:01:28=41,765 
51 FRAJérémy RoyFRAFDJ04:45:10  +  00:01:28=41,765 
52 ITAAdriano MaloriESPMovistar Team04:45:15  +  00:01:33=41,753 
53 POLMichal GolasBELEtixx - Quick Step04:45:40  +  00:01:58=41,692 
54 FRASylvain ChavanelCHEIAM Cycling04:45:40  +  00:01:58=41,692 
55 CZEJan BártaDEUBora-Argon 1804:45:40  +  00:01:58=41,692 
56 FRAAlexis VuillermozFRAAg2r La Mondiale04:45:40  +  00:01:58=41,692 
57 PORTiago PintoRUSTeam Katusha04:45:40  +  00:01:58=41,692 
58 SUIMichael SchärUSABMC Racing Team04:45:40  +  00:01:58=41,692 
59 ESPHaimar ZubeldiaUSATrek Factory Racing04:45:40  +  00:01:58=41,692 
60 SUISteve MorabitoFRAFDJ04:45:40  +  00:01:58=41,692 
61 SUIReto HollensteinCHEIAM Cycling04:45:40  +  00:01:58=41,692 
62 ESPRubén PlazaITALampre-Merida04:45:40  +  00:01:58=41,692 
63 LUXBob JungelsUSATrek Factory Racing04:45:40  +  00:01:58=41,692 
64 ENGAdam YatesAUSOrica - GreenEDGE04:45:40  +  00:01:58=41,692 
65 FRAAngelo TulikFRATeam Europcar04:45:56  +  00:02:14=41,653 
66 NEDLieuwe WestraKAZAstana Pro Team04:46:01  +  00:02:19=41,641 
67 CZERoman KreuzigerRUSTinkoff Saxo04:46:01  +  00:02:19=41,641 
68 ENGStephen CummingsZAFMTN - Qhubeka P/B Samsung04:46:01  +  00:02:19=41,641 
69 NEDBram TankinkNLDTeam Lotto NL - Jumbo04:46:01  +  00:02:19=41,641 
70 ITAMatteo TrentinBELEtixx - Quick Step04:46:04  +  00:02:22=41,634 
71 FRABryan CoquardFRATeam Europcar04:46:06  +  00:02:24=41,629 
72 COLWinner AnaconaESPMovistar Team04:46:06  +  00:02:24=41,629 
73 AUTMarco HallerRUSTeam Katusha04:46:06  +  00:02:24=41,629 
74 SUIMarcel WyssCHEIAM Cycling04:46:09  +  00:02:27=41,622 
75 FRAJérôme CoppelCHEIAM Cycling04:46:09  +  00:02:27=41,622 
76 COLRigoberto UranBELEtixx - Quick Step04:46:09  +  00:02:27=41,622 
77 ESPGorka Izaguirre InsaustiESPMovistar Team04:46:14  +  00:02:32=41,609 
78 ESPJonathan CastroviejoESPMovistar Team04:46:14  +  00:02:32=41,609 
79 GEREmanuel BuchmannDEUBora-Argon 1804:46:23  +  00:02:41=41,588 
80 FRARomain SicardFRATeam Europcar04:46:31  +  00:02:49=41,568 
81 ERIDaniel TeklehaimanotZAFMTN - Qhubeka P/B Samsung04:46:34  +  00:02:52=41,561 
82 FRAPierrick FédrigoFRABretagne - Séché Environnement04:46:46  +  00:03:04=41,532 
83 RSAJacques Janse Van RensburgZAFMTN - Qhubeka P/B Samsung04:46:51  +  00:03:09=41,520 
84 GERSimon GeschkeDEUTeam Giant Alpecin04:46:58  +  00:03:16=41,503 
85 FRAAlexandre GeniezFRAFDJ04:47:18  +  00:03:36=41,455 
86 FRAMatthieu LadagnousFRAFDJ04:47:18  +  00:03:36=41,455 
87 ESPAlberto LosadaRUSTeam Katusha04:47:23  +  00:03:41=41,443 
88 NEDBauke MollemaUSATrek Factory Racing04:47:23  +  00:03:41=41,443 
89 FRAPerrig QuemeneurFRATeam Europcar04:47:42  +  00:04:00=41,397 
90 ITAMatteo BonoITALampre-Merida04:48:08  +  00:04:26=41,335 
91 ESPRafael Valls FerriITALampre-Merida04:48:08  +  00:04:26=41,335 
92 FRAPierre-Luc PérichonFRABretagne - Séché Environnement04:48:35  +  00:04:53=41,271 
93 FRAThomas VoecklerFRATeam Europcar04:48:45  +  00:05:03=41,247 
94 FRAGeoffrey SoupeFRACofidis – Solutions Crédits04:49:03  +  00:05:21=41,204 
95 NEDPieter WeeningAUSOrica - GreenEDGE04:49:13  +  00:05:31=41,180 
96 FRAJean-Christophe PeraudFRAAg2r La Mondiale04:49:26  +  00:05:44=41,149 
97 AUSNathan HaasUSATeam Cannondale - Garmin04:49:26  +  00:05:44=41,149 
98 ESPMarkel IrizarUSATrek Factory Racing04:49:37  +  00:05:55=41,123 
99 FRABrice FeilluFRABretagne - Séché Environnement04:49:37  +  00:05:55=41,123 
100 SUIMartin ElmigerCHEIAM Cycling04:49:37  +  00:05:55=41,123 
101 NEDWout PoelsGBRSky Procycling04:49:41  +  00:05:59=41,114 
102 ENGDaniel MartinUSATeam Cannondale - Garmin04:49:49  +  00:06:07=41,095 
103 ENGSimon YatesAUSOrica - GreenEDGE04:50:32  +  00:06:50=40,994 
104 PORJosé João PimentaDEUBora-Argon 1804:51:26  +  00:07:44=40,867 
105 FRAJulien SimonFRACofidis – Solutions Crédits04:51:53  +  00:08:11=40,804 
106 AUSRohan DennisUSABMC Racing Team04:51:55  +  00:08:13=40,799 
107 HRVKristijan DurasekITALampre-Merida04:52:10  +  00:08:28=40,764 
108 COLJosé SerpaITALampre-Merida04:52:10  +  00:08:28=40,764 
109 ITADamiano CarusoUSABMC Racing Team04:52:10  +  00:08:28=40,764 
110 SUIDanilo WyssUSABMC Racing Team04:52:10  +  00:08:28=40,764 
111 FRAAnthony DelaplaceFRABretagne - Séché Environnement04:52:10  +  00:08:28=40,764 
112 FRAFlorian VachonFRABretagne - Séché Environnement04:52:10  +  00:08:28=40,764 
113 FRANicolas EdetFRACofidis – Solutions Crédits04:52:10  +  00:08:28=40,764 
114 FRAYohann GèneFRATeam Europcar04:52:10  +  00:08:28=40,764 
115 CZELeopold KönigGBRSky Procycling04:52:36  +  00:08:54=40,704 
116 NEDKoen De KortDEUTeam Giant Alpecin04:53:25  +  00:09:43=40,591 
117 WALLuke RoweGBRSky Procycling04:53:25  +  00:09:43=40,591 
118 ITAGiampaolo CarusoRUSTeam Katusha04:53:25  +  00:09:43=40,591 
119 AUSRichie PorteGBRSky Procycling04:53:25  +  00:09:43=40,591 
120 ESPDaniel NavarroFRACofidis – Solutions Crédits04:53:25  +  00:09:43=40,591 
121 CANRyder HesjedalUSATeam Cannondale - Garmin04:53:25  +  00:09:43=40,591 
122 ESPJoaquim RodriguezRUSTeam Katusha04:53:25  +  00:09:43=40,591 
123 ERIMerhawi GhebremedhinZAFMTN - Qhubeka P/B Samsung04:53:25  +  00:09:43=40,591 
124 FRAFlorian SénéchalFRACofidis – Solutions Crédits04:53:25  +  00:09:43=40,591 
125 RSALouis MeintjesZAFMTN - Qhubeka P/B Samsung04:53:25  +  00:09:43=40,591 
126 AUSMichael RogersRUSTinkoff Saxo04:53:25  +  00:09:43=40,591 
127 ITAJacopo GuarnieriRUSTeam Katusha04:53:45  +  00:10:03=40,545 
128 ITADaniel OssUSABMC Racing Team04:53:45  +  00:10:03=40,545 
129 KAZDmitriy GruzdevKAZAstana Pro Team04:53:45  +  00:10:03=40,545 
130 ITAManuel QuinziatoUSABMC Racing Team04:55:04  +  00:11:22=40,364 
131 FRAArnaud GérardFRABretagne - Séché Environnement04:55:04  +  00:11:22=40,364 
132 GERPaul VossDEUBora-Argon 1804:55:06  +  00:11:24=40,359 
133 ITAMatteo TosattoRUSTinkoff Saxo04:55:06  +  00:11:24=40,359 
134 SUIGregory RastUSATrek Factory Racing04:55:06  +  00:11:24=40,359 
135 AUSLuke DurbridgeAUSOrica - GreenEDGE04:55:06  +  00:11:24=40,359 
136 CANSvein TuftAUSOrica - GreenEDGE04:55:06  +  00:11:24=40,359 
137 ENGIan StannardGBRSky Procycling04:55:08  +  00:11:26=40,355 
138 POLRafal MajkaRUSTinkoff Saxo04:55:08  +  00:11:26=40,355 
139 POLMichal KwiatkowskiBELEtixx - Quick Step04:55:08  +  00:11:26=40,355 
140 POLBartosz HuzarskiDEUBora-Argon 1804:55:08  +  00:11:26=40,355 
141 FRADamien GaudinFRAAg2r La Mondiale04:55:08  +  00:11:26=40,355 
142 IOMPeter KennaughGBRSky Procycling04:55:45  +  00:12:03=40,270 
143 NEDDylan Van BaarleUSATeam Cannondale - Garmin04:55:52  +  00:12:10=40,255 
144 NEDJos Van EmdenNLDTeam Lotto NL - Jumbo04:55:52  +  00:12:10=40,255 
145 AUSAdam HansenBELLotto Soudal04:55:52  +  00:12:10=40,255 
146 ITADavide CimolaiITALampre-Merida04:55:52  +  00:12:10=40,255 
147 UKRAndriy GrivkoKAZAstana Pro Team04:55:52  +  00:12:10=40,255 
148 NEDRoy CurversDEUTeam Giant Alpecin04:55:52  +  00:12:10=40,255 
149 FRAFrédéric BrunFRABretagne - Séché Environnement04:55:52  +  00:12:10=40,255 
150 BELStijn DevolderUSATrek Factory Racing04:55:52  +  00:12:10=40,255 
151 BELJens DebusschereBELLotto Soudal04:55:52  +  00:12:10=40,255 
152 AUTMatthias BrändleCHEIAM Cycling04:55:52  +  00:12:10=40,255 
153 AUSMark RenshawBELEtixx - Quick Step04:55:52  +  00:12:10=40,255 
154 FRASébastien ChavanelFRAFDJ04:55:52  +  00:12:10=40,255 
155 USATyler FarrarZAFMTN - Qhubeka P/B Samsung04:55:52  +  00:12:10=40,255 
156 DENMichael ValgrenRUSTinkoff Saxo04:55:52  +  00:12:10=40,255 
157 LUXLaurent DidierUSATrek Factory Racing04:55:52  +  00:12:10=40,255 
158 COLJulián ArredondoUSATrek Factory Racing04:55:52  +  00:12:10=40,255 
159 BELSep VanmarckeNLDTeam Lotto NL - Jumbo04:55:52  +  00:12:10=40,255 
160 SUIJakob FuglsangKAZAstana Pro Team04:55:52  +  00:12:10=40,255 
161 GERAndré GreipelBELLotto Soudal04:55:52  +  00:12:10=40,255 
162 GERMarcel SiebergBELLotto Soudal04:55:52  +  00:12:10=40,255 
163 NEDTom LeezerNLDTeam Lotto NL - Jumbo04:55:52  +  00:12:10=40,255 
164 FRAChristophe RiblonFRAAg2r La Mondiale04:55:52  +  00:12:10=40,255 
165 NEDAlbert TimmerDEUTeam Giant Alpecin04:55:59  +  00:12:17=40,239 
166 BELTim WellensBELLotto Soudal04:56:16  +  00:12:34=40,200 
167 FRAChristophe LaporteFRACofidis – Solutions Crédits04:56:21  +  00:12:39=40,189 
168 FRABryan NauleauFRATeam Europcar05:05:07  +  00:21:25=39,034 
169 AUTGeorg PreidlerDEUTeam Giant Alpecin05:05:07  +  00:21:25=39,034 
170 ESPImanol ErvitiESPMovistar Team05:05:07  +  00:21:25=39,034 
171 BELKenneth VanbilsenFRACofidis – Solutions Crédits05:05:07  +  00:21:25=39,034 
172 NEDSebastian LangeveldUSATeam Cannondale - Garmin05:05:07  +  00:21:25=39,034 
173 URSRamunas NavardauskasUSATeam Cannondale - Garmin05:05:07  +  00:21:25=39,034 
174 NEDRamon SinkeldamDEUTeam Giant Alpecin05:05:19  +  00:21:37=39,009 
175 BELSam BennettDEUBora-Argon 1805:05:19  +  00:21:37=39,009 


Todays birthdays.

1899  Emile Lambiel
1908  Auguste Monciero
1920  Georges Guillier
1927  Danilo Barozzi
1928  Settimo Sabbadini
1936  Jean Simon
1945  José Uribezubia
1965  José Farfán
1970  Erik Dekker